Malaysia Virtual Airlines Airport Information Service

Tokyo International Airport

ICAO: RJTT Country: Japan
Latitude: 35.5523 Longitude: 139.78
Latest Arrival : MC82 (WBKK-RJTT) Latest Departure : MC85 (RJTT-WBKK)


WX CaptureLIVE
Data provided by noaa.gov | Fetched at 04:45:21

METAR : RJTT 290430Z 07005KT 9999 FEW030 BKN/// 11/03 Q1026 NOSIG

TAF : RJTT 282305Z 2900/3006 35004KT 9999 FEW030 BECMG 2900/2902 19010KT BECMG 2909/2911 35006KT


Runway Data for RJTT
Data provided by openaviationdata.com

Runway ID Mag Var Hdg Length Elevation Surface ILS Freq ILS Id ILS Slope
4 -7 41° 8208 ft 21 ft Asphalt -- -- --
16L -7 156° 9851 ft 21 ft Asphalt -- -- --
16R -7 156° 9851 ft 21 ft Asphalt -- -- --
22 -7 221° 8208 ft 21 ft Asphalt 108.1 IAD 3
34L -7 336° 9851 ft 21 ft Asphalt 111.7 IHA 3
34R -7 336° 9851 ft 21 ft Asphalt 108.9 ITC 3

Tokyo International Airport, Japan
Use only for reference purposes



Not for navigational purposes.